Regional Weather Roundup
Issued by NWS Little Rock, AR

Current Version | Previous Version | Text Only | Print | Product List | Glossary On
Versions: 1 2 3 4 5 6 7 8 9 10 11 12 13 14 15 16 17 18 19 20 21 22 23 24 25 26 27 28 29 30 31 32 33 34 35 36 37 38 39 40 41 42 43 44 45 46 47 48 49 50
000
ASUS44 KLZK 271505
RWRLZK

WEATHER ROUNDUP FOR ARKANSAS
NATIONAL WEATHER SERVICE LITTLE ROCK AR
900 AM CST MON FEB 27 2017

NOTE: "FAIR" INDICATES FEW OR NO CLOUDS BELOW 12,000 FEET WITH NO
SIGNIFICANT WEATHER AND/OR OBSTRUCTIONS TO VISIBILITY.

ARZ001-003-010-029-271600-
NORTHWEST ARKANSAS

CITY           SKY/WX    TMP DP  RH WIND       PRES   REMARKS
FAYETTEVILLE   MOSUNNY   42  36  79 CALM      30.04R
FORT SMITH     CLOUDY    49  39  68 E12       30.05R
HARRISON       SUNNY     45  33  63 SE8       30.07R
BENTONVILLE    SUNNY     48  37  66 SE9       30.03S
ROGERS         SUNNY     47  37  68 E9        30.04R
SILOAM SPGS    MOSUNNY   46  36  66 E9        30.02R
HIGHFILL       SUNNY     48  37  65 E6        30.02R
SPRINGDALE     SUNNY     48  37  66 SE6G13    30.05R
$$

ARZ004-005-016-271600-
NORTH CENTRAL ARKANSAS

CITY           SKY/WX    TMP DP  RH WIND       PRES   REMARKS
BATESVILLE     CLOUDY    48  45  87 S5        30.13R
FLIPPIN        SUNNY     43  32  65 E3        30.07S
MTN HOME       SUNNY     47  40  76 S8        30.08R
$$

ARZ040-041-271600-
WEST CENTRAL ARKANSAS

CITY           SKY/WX    TMP DP  RH WIND       PRES   REMARKS
MENA           CLOUDY    52  52 100 E5        30.06S
MOUNT IDA      LGT RAIN  50  48  93 CALM      30.06R FOG
$$

ARZ009-017-025-026-028-271600-
NORTHEAST ARKANSAS

CITY           SKY/WX    TMP DP  RH WIND       PRES   REMARKS
CORNING        FAIR      54  46  76 S8        30.13S
JONESBORO      MOSUNNY   52  47  83 S9        30.13R
NEWPORT        CLOUDY    51  47  86 MISG      30.14R
WALNUT RIDGE   SUNNY     52  45  76 S9        30.12S
BLYTHEVILLE    PTSUNNY   51  46  83 S9        30.15R
NW BLYTHEVILLE PTSUNNY   52  46  82 S8        30.14R
$$

ARZ022-023-033-042-044-271600-
CENTRAL ARKANSAS

CITY           SKY/WX    TMP DP  RH WIND       PRES   REMARKS
LITTLE ROCK    CLOUDY    50  50 100 S3        30.13R
N LITTLE ROCK    N/A     48  47  96 E5        30.14R
JACKSONVILLE   CLOUDY    50  50 100 SE6       30.11R
SEARCY         CLOUDY    51  48  89 SE7       30.14R
HOT SPRINGS    LGT RAIN  50  50 100 CALM      30.10R FOG
RUSSELLVILLE   CLOUDY    48  45  89 E7        30.09S
CLINTON        CLOUDY    41  37  87 CALM      30.13R
$$

ARZ036-271600-
EAST ARKANSAS

CITY           SKY/WX    TMP DP  RH WIND       PRES   REMARKS
WEST MEMPHIS   CLOUDY    50  48  93 SE9       30.13R
$$

ARZ050-053-066-070-073-271600-
SOUTHWEST ARKANSAS

CITY           SKY/WX    TMP DP  RH WIND       PRES   REMARKS
ARKADELPHIA    CLOUDY    51  50  96 E5        30.10R
CAMDEN         CLOUDY    54  50  87 SE8       30.10R
TEXARKANA      CLOUDY    52  52 100 SE6       30.07R
EL DORADO      CLOUDY    53  52  96 E8        30.11S FOG
DE QUEEN       CLOUDY    52  52 100 E7        30.04R
$$

ARZ056-057-069-271600-
SOUTHEAST ARKANSAS

CITY           SKY/WX    TMP DP  RH WIND       PRES   REMARKS
PINE BLUFF     CLOUDY    50  50 100 E7        30.11S
STUTTGART      CLOUDY    50  43  76 SE10      30.14R
MONTICELLO     CLOUDY    51  50  96 VRB3      30.12S

$$





USA.gov is the U.S. government's official web portal to all federal, state and local government web resources and services.